Torna al catalogo

STARLINK-36626

AttivoComunicazioniSSO
NORAD 67603·PAYLOAD·🇺🇸 United States

Lanciato Jan 29, 2026 da Vandenberg Space Force Base

Loading…

Prossimi Passaggi (prossime 24 ore)

TLE

AggiornatoSource: CelesTrak SupGP

Epoca: Sep 14, 2026, 21:24 UTC

1 67603C 26018Q   26257.89215278 -.00014614  00000+0 -45371-3 0  2570
2 67603  97.2850 321.4508 0001054  90.4854 215.7258 15.33442472    14

Traccia STARLINK-36626 in tempo reale con AllMySat

Download on the App Store